SOYUZ-MS 22 (53879 NORAD) Tracking and Keplerian Element Data

This shows tracking and keplerian element data for the satellite.

Feedback or suggestion? Click here.




ElementValue
Catalog53879
NameSOYUZ-MS 22
Epoch Orbit36941
Epoch Day324.43010292
Epoch Year2022
RAAN282.5846
Inclination51.6438
Eccentricity0.0006965
Argument of Perigee94.1712
Mean Anonmoly47.5689
Mean Motion15.50101142
Decay Rate0.000101
L11 53879U 22116A 22324.43010292 .00010100 00000+0 18398-3 0 9991
L22 53879 51.6438 282.5846 0006965 94.1712 47.5689 15.50101142369418



Live tracking and technical data element details for SOYUZ-MS 22 (NORAD 53879). SOYUZ-MS 22 can be tracked NOW for your location showing map with azimuth and elevation plus other details from your city location.







IsCatalogInMostPopularTable: catalog: 53879, numindb: 2
Update: records affected: 1



GetName: 53879 SOYUZ-MS 22

Hit Count: updated at: Thu, 08 Dec 2022 10:16:24 GMT